Find Astra 3A

NORAD ID: 27400 Int'l Des: 2002-015 Owner: SESA Country: L operational
HEOCIRCULAR

Live Position

Loading 3D Globe...

About Astra 3A

Description loading...

Upcoming Passes

Passes for default location (London). Set your location on the main map for personalized predictions.

Altitude History

Loading altitude history...

Two-Line Element Set

1 27400U 02015B 26105.58489162 -.00000164 00000-0 00000-0 0 9990
2 27400 10.4045 48.4618 0002951 276.5992 89.3014 0.99089071 87954
Epoch: Apr 15, 2026 • Age: 15 hours

Current Status

Altitude 36114.7 km
Velocity 3.06 km/s
Sub-Earth Point -7.15°S, 3.04°W
Launch Date Mar 29, 2002
Age 24 years
Type other

Technical Details

Classification Payload
Mass 865.00 kg
Dry Mass 700.00 kg
Total Mass 1495.00 kg
Length 8.00 m
Diameter 2.20 m
Span 8.00 m
Shape Cyl
Manufacturer BOES
Bus Type HS-376HP
Phase Status In Orbit
Owner/State SESA/L

Most Searched